Location: Bergnerzell
(49.1816°N, 10.2565°E)
Time: 22:01:41
(UTC+00:00)

Cosmos 2333 Rocket - Pass Details

Date: 23 May 2024
Orbit: 839 x 863 km, 70.8° (Epoch: 14 June)

Event Time Altitude Azimuth Distance (km) Brightness Sun altitude
Rises 02:30:32 0° 326° (NW) 3,426 5.5 -7.9°
Reaches altitude 10° 02:33:07 10° 319° (NW) 2,490 4.7 -7.6°
Maximum altitude 02:38:23 39° 252° (WSW) 1,255 2.7 -6.9°
Drops below altitude 10° 02:43:39 10° 185° (S) 2,488 4.2 -6.3°
Sets 02:46:14 0° 178° (S) 3,423 5.0 -6.0°
